This is the latest recevied weather packets stored in our database for station/object K5BOU. If no packets are shown the sender has not sent any weather packets the latest 10 day(s).
| Time | Temp. | Humidity | Pressure | Rain* | Wind** | Luminosity | Snow |
|---|---|---|---|---|---|---|---|
| 1787937583 | 35.56° C | 64% | 1015.4 hPa | 0 mm | - | 756 W/m² | - |
| 1787937279 | 34.44° C | 66% | 1015.4 hPa | 0 mm | - | 733 W/m² | - |
| 1787936975 | 35° C | 67% | 1015.4 hPa | 0 mm | - | 766 W/m² | - |
| 1787936673 | 33.89° C | 70% | 1015.4 hPa | 0 mm | - | 771 W/m² | - |
| 1787936368 | 34.44° C | 71% | 1015.6 hPa | 0 mm | - | 780 W/m² | - |
| 1787936064 | 33.89° C | 72% | 1015.5 hPa | 0 mm | - | 746 W/m² | - |
| 1787935759 | 34.44° C | 70% | 1015.7 hPa | 0 mm | - | 776 W/m² | - |
| 1787935454 | 33.89° C | 69% | 1015.7 hPa | 0 mm | - | 744 W/m² | - |
| 1787935151 | 33.89° C | 68% | 1015.6 hPa | 0 mm | - | 748 W/m² | - |
| 1787934846 | 33.33° C | 72% | 1015.5 hPa | 0 mm | - | 770 W/m² | - |
| 1787934545 | 33.33° C | 72% | 1015.7 hPa | 0 mm | - | 767 W/m² | - |
| 1787934240 | 33.33° C | 72% | 1015.7 hPa | 0 mm | - | 785 W/m² | - |
| 1787933939 | 32.78° C | 72% | 1015.7 hPa | 0 mm | - | 687 W/m² | - |
| 1787933638 | 33.33° C | 72% | 1015.7 hPa | 0 mm | - | 753 W/m² | - |
| 1787933334 | 32.22° C | 75% | 1015.8 hPa | 0 mm | - | 771 W/m² | - |
| 1787933034 | 31.67° C | 75% | 1015.7 hPa | 0 mm | - | 751 W/m² | - |
| 1787932733 | 31.67° C | 76% | 1015.7 hPa | 0 mm | - | 275 W/m² | - |
| 1787932432 | 31.67° C | 78% | 1015.8 hPa | 0 mm | - | 615 W/m² | - |
| 1787932128 | 31.67° C | 80% | 1015.6 hPa | 0 mm | - | 670 W/m² | - |
| 1787931826 | 31.67° C | 82% | 1015.7 hPa | 0 mm | - | 634 W/m² | - |
| 1787931521 | 31.67° C | 82% | 1015.7 hPa | 0 mm | - | 632 W/m² | - |
| 1787931221 | 31.11° C | 82% | 1015.6 hPa | 0 mm | - | 625 W/m² | - |
| 1787930920 | 31.11° C | 83% | 1015.7 hPa | 0 mm | - | 611 W/m² | - |
| 1787930619 | 30.56° C | 84% | 1015.8 hPa | 0 mm | - | 615 W/m² | - |
| 1787930315 | 30.56° C | 82% | 1015.8 hPa | 0 mm | - | 612 W/m² | - |
* Rain latest hour (hover to see other rain measurements)
** Current wind speed in m/s (hover to see current wind gust speed)